Location: Kouchibouguac National Park
(46.8081°N, 64.9088°W)
Time: 03:45:11
(UTC-03:00)

Daily predictions for brighter satellites

Satellite Brightness Start Highest point End
(mag) Time Altitude Azimuth Time Altitude Azimuth Time Altitude Azimuth
GP-B 4.4 00:06:36 10° NNW 00:09:53 37° NW 00:09:53 37° NW
Meteor 1-24 Rocket 3.9 00:09:23 10° N 00:15:05 79° N 00:15:05 79° N
CZ-4B R/B 4.4 00:20:18 15° NNE 00:20:18 15° NNE 00:21:05 10° N
UNK 4.1 00:11:06 10° W 00:25:07 71° N 00:25:54 61° NE
Cosmos 2263 Rocket 2.9 00:26:51 10° NW 00:31:08 47° WNW 00:31:08 47° WNW
ALOS 2 4.2 00:35:08 33° N 00:35:08 33° N 00:37:39 10° N
Cosmos 2322 Rocket 2.7 00:33:40 55° NW 00:33:40 55° NW 00:39:04 10° NNE
Terra 4.0 00:35:48 17° W 00:35:48 17° W 00:38:21 10° NW
Cosmos 371 Rocket 4.5 00:39:18 40° N 00:39:18 40° N 00:42:32 10° NNE
COSMOS 2428 4.2 00:49:04 28° ENE 00:49:04 28° ENE 00:52:05 10° NE
Lacrosse 4 Rocket 4.1 00:54:32 15° NE 00:54:32 15° NE 00:55:24 10° NE
Cosmos 2034 Rocket 4.3 01:03:11 58° WNW 01:03:11 58° WNW 01:08:55 10° N
Cosmos 2278 Rocket 3.2 01:06:07 10° NNW 01:11:26 40° NE 01:11:26 40° NE
Cosmos 1092 Rocket 4.3 01:14:28 10° NNW 01:20:04 63° NW 01:20:04 63° NW
COSMOS 2455 4.4 01:24:11 24° E 01:24:11 24° E 01:27:19 10° NE
Cosmos 1634 Rocket 4.1 01:23:57 70° NNE 01:23:57 70° NNE 01:29:35 10° N
SL-16 R/B 3.8 01:26:09 24° WNW 01:27:31 27° NW 01:32:18 10° N
Cosmos 1844 4.3 01:28:17 10° NNW 01:32:42 54° NNW 01:32:42 54° NNW
Cosmos 1680 Rocket 4.4 01:37:06 46° NNE 01:37:06 46° NNE 01:40:50 10° NNE
Cosmos 2279 Rocket 4.2 01:45:14 65° NE 01:45:14 65° NE 01:50:45 10° NNE
Cosmos 1844 Rocket 3.7 01:41:08 10° NNW 01:44:42 39° NW 01:44:42 39° NW
Cosmos 2360 Rocket 3.2 01:48:09 40° NW 01:48:09 40° NW 01:53:21 10° NNE
CZ-2C R/B 3.2 01:48:28 10° N 01:52:57 57° NNW 01:52:57 57° NNW
Cosmos 2266 Rocket 4.3 01:58:05 10° N 02:04:22 57° ENE 02:04:36 57° E
Cosmos 2056 Rocket 4.4 02:02:26 10° NNW 02:06:03 45° NNW 02:06:03 45° NNW
CZ-2C R/B 4.4 02:12:56 29° NW 02:12:56 29° NW 02:15:33 10° NNW
Cosmos 2219 Rocket 2.6 02:11:54 61° NNE 02:11:54 61° NNE 02:16:31 10° NNE
Cosmos 2333 Rocket 2.6 02:15:45 61° NE 02:15:45 61° NE 02:20:36 10° NNE
SL-16 R/B 3.5 02:18:09 31° E 02:18:09 31° E 02:22:27 10° NE
Cosmos 2297 4.0 02:14:03 10° NNW 02:19:29 64° NE 02:19:29 64° NE
Meteor 2-1 Rocket 4.4 02:24:43 65° NE 02:24:43 65° NE 02:29:29 10° NNE
Cosmos 2237 Rocket 2.5 02:25:03 64° NE 02:25:03 64° NE 02:29:57 10° NNE
Cosmos 1980 3.9 02:28:49 68° NNE 02:28:49 68° NNE 02:33:44 10° NNE
Lacrosse 4 Rocket 3.4 02:30:52 26° NNW 02:30:52 26° NNW 02:33:56 10° NNE
COSMOS 2428 3.6 02:31:04 38° NW 02:31:07 38° NW 02:36:27 10° NNE
Cosmos 1633 Rocket 4.5 02:27:03 10° N 02:29:45 36° N 02:29:45 36° N
ATLAS 3B R/B 2.8 02:39:03 71° S 02:39:50 78° SE 02:47:16 10° NE
SL-08 R/B 4.1 02:40:56 47° NE 02:40:56 47° NE 02:44:59 10° N
Cosmos 2221 4.1 02:48:55 31° NNW 02:48:55 31° NNW 02:51:33 10° N
Resurs 1-4 Rocket 4.4 02:46:11 10° NE 02:49:11 15° E 02:51:19 12° ESE
Cosmos 1626 4.3 02:45:29 10° N 02:47:13 25° N 02:47:13 25° N
ATLAS CENTAUR R/B 4.2 02:51:44 10° NNW 02:55:04 20° NNE 02:58:13 10° E
Cosmos 2278 Rocket 3.6 02:50:21 10° NW 02:53:14 26° WNW 02:53:14 26° WNW
CZ-4C R/B 3.1 02:56:12 36° ESE 02:56:12 36° ESE 03:01:25 10° NE
Cosmos 1607 4.3 02:57:21 49° SE 02:57:34 49° ESE 03:03:28 10° NE
ARIANE 5 R/B 4.2 02:59:45 10° NE 03:04:02 25° E 03:05:33 22° ESE
AQUA 4.3 03:00:37 10° NNE 03:05:02 53° E 03:05:02 53° E
COSMOS 2455 3.0 03:07:19 56° WNW 03:07:51 59° NW 03:13:51 10° NNE
Cosmos 1452 Rocket 4.2 03:02:51 10° NNW 03:06:36 43° NW 03:06:36 43° NW
NOSS 0 Rocket 4.3 03:08:25 48° WNW 03:09:06 51° NW 03:15:07 10° NNE
Exosat Rocket 3.6 03:09:30 10° NNW 03:14:19 76° W 03:14:19 76° W
Nadezhda 2 Rocket 4.5 03:14:10 10° NNW 03:20:31 63° W 03:20:59 61° WSW
SL-16 R/B 3.2 03:17:54 18° SE 03:22:25 53° ENE 03:28:25 10° N
Cosmos 1151 Rocket 3.4 03:23:07 61° ENE 03:23:07 61° ENE 03:27:10 10° NNE
USA 238 DEB 3.7 03:23:53 56° SSW 03:25:29 75° SE 03:32:34 10° NE
USA 238 3.7 03:24:00 55° S 03:25:36 75° SE 03:32:41 10° NE
USA 234 3.5 03:19:32 10° ENE 03:25:56 54° SE 03:27:15 47° S
Timation 1 Rocket 4.3 03:21:03 10° NNW 03:26:52 64° WSW 03:26:52 64° WSW
Aureole 2 Rocket 3.5 03:27:57 50° N 03:27:57 50° N 03:31:12 10° NNE
Cosmos 2228 Rocket 3.9 03:27:48 43° NW 03:27:48 43° NW 03:31:28 10° N
IRS-1C 4.1 03:23:15 10° NNE 03:28:37 73° ESE 03:29:22 63° SSE
CZ-3A R/B 3.4 03:26:06 31° W 03:29:32 59° NNW 03:33:42 10° NE
Cosmos 1328 Rocket 4.3 03:33:26 42° NW 03:33:26 42° NW 03:36:48 10° N
S3M 4.1 03:31:09 44° SSE 03:33:10 69° E 03:39:27 10° NNE
Cosmos 1932 4.5 03:34:05 55° WSW 03:35:23 70° NW 03:41:45 10° NE
ERBS 4.0 03:41:26 29° E 03:41:26 29° E 03:43:38 10° ENE
SeaSat 1 3.6 03:35:44 10° ESE 03:40:21 42° NE 03:45:00 10° NNW
Meteor 2-2 Rocket 4.3 03:40:08 58° SSW 03:41:22 81° W 03:47:20 10° N
Cosmos 2369 Rocket 3.2 03:36:24 10° NNW 03:41:48 45° NE 03:47:10 10° SE
NOSS 3-2 (A) 4.2 03:41:15 34° SSE 03:43:15 44° ESE 03:49:29 10° NE
UNK 4.2 03:41:29 35° SE 03:43:15 59° ENE 03:47:48 10° N
CZ-2D R/B 3.0 03:39:38 10° NNE 03:44:41 43° E 03:46:59 27° SSE
CBERS-1 3.9 03:39:46 10° N 03:44:51 68° WNW 03:45:22 63° WSW
IRS-P3 4.4 03:40:23 10° N 03:45:33 51° WNW 03:46:07 49° W
Cosmos 1300 3.2 03:47:30 53° E 03:47:34 53° E 03:51:20 10° NNE
NOSS 3-3 (A) 4.5 03:41:27 10° NW 03:48:50 81° NE 03:56:44 10° SE
NOSS 3-3 (C) 4.5 03:41:34 10° NW 03:48:57 81° NE 03:56:51 10° SE
Cosmos 1515 Rocket 4.4 03:55:00 36° WNW 03:55:00 36° WNW 03:58:35 10° N
Cosmos 1553 Rocket 3.9 03:52:39 45° SSW 03:54:44 85° W 04:00:54 10° N
Cosmos 1745 Rocket 3.9 03:48:42 10° N 03:55:06 82° W 03:58:06 34° S
Cosmos 1726 2.6 03:55:00 53° ESE 03:55:14 54° E 03:58:55 10° NNE
Cosmos 1340 Rocket 2.7 03:51:11 10° N 03:55:08 85° N 03:55:08 85° N
Cosmos 2219 Rocket 4.0 03:53:37 16° WNW 03:55:37 20° NW 03:59:39 10° N
NPP 4.0 03:50:38 10° N 03:55:50 50° WNW 03:56:42 45° W
NOSS 3-2 (C) 4.2 03:55:30 30° S 03:58:05 45° ESE 04:04:23 10° NE
Cosmos 1869 Rocket 3.5 03:54:18 10° N 03:58:44 82° E 03:59:48 52° SSE
Cosmos 2333 Rocket 3.8 03:57:45 20° WNW 03:59:43 23° NW 04:04:18 10° N
SL-16 R/B 2.7 04:00:03 38° W 04:01:25 45° NW 04:06:54 10° NNE
Cosmos 1271 Rocket 2.7 04:01:41 72° SSE 04:02:01 80° E 04:06:04 10° NNE
ERS-1 4.3 04:00:14 10° NNE 04:05:13 80° WNW 04:06:30 50° SSW
Meteor 1-27 4.4 04:05:32 29° S 04:08:21 68° E 04:13:54 10° NNE
Cosmos 2237 Rocket 3.8 04:06:52 19° WNW 04:08:56 23° NW 04:13:23 10° N
IRAS Rocket 4.3 04:08:09 10° N 04:13:43 62° WNW 04:15:38 40° SW
Cosmos 1943 Rocket 3.6 04:11:13 10° NNW 04:16:32 39° NE 04:21:48 10° ESE
Coronas F rocket 2.5 04:19:18 10° N 04:21:04 37° N 04:21:04 37° N
ADEOS 3.9 04:18:18 10° N 04:23:20 49° WNW 04:24:58 36° WSW
BREEZE-M DEB (TANK) 3.2 04:20:29 28° WSW 04:24:42 86° NNW 04:28:07 10° ENE
Spot 4 Rocket 4.4 04:21:29 10° N 04:26:28 50° WNW 04:28:12 35° WSW
IRS-1D 3.5 04:22:25 10° N 04:27:34 71° WNW 04:29:55 33° SSW
Resurs 1-4 Rocket 2.0 04:24:23 10° NNE 04:29:40 80° WNW 04:32:24 29° SSW
UNKNOWN OBJECT B 2.7 04:25:57 10° NNE 04:29:41 74° ESE 04:31:03 37° S
Cosmos 1356 Rocket 3.4 04:26:27 10° NNW 04:30:27 56° W 04:31:18 45° SW
ATLAS 3B R/B 3.9 04:26:18 18° W 04:31:16 36° NNW 04:37:56 10° NNE
Cosmos 494 Rocket 4.4 04:28:26 23° S 04:31:43 63° ESE 04:36:56 10° NNE
Cosmos 1867 4.2 04:29:33 29° W 04:31:53 46° NW 04:37:11 10° NNE
EO 1 Del DPAF 3.2 04:30:50 38° S 04:32:10 67° WSW 04:36:03 10° NNW
Cosmos 1302 Rocket 4.2 04:28:31 10° NNW 04:33:49 75° ENE 04:39:02 10° SSE
ATLAS CENTAUR R/B 1.3 04:30:22 10° NW 04:34:48 84° WSW 04:38:51 10° SSE
ERS-2 2.8 04:31:57 10° N 04:35:25 37° WNW 04:35:50 36° W
Meteor 1-4 Rocket 3.6 04:37:16 28° WNW 04:37:16 28° WNW 04:40:15 10° N
MTI 3.7 04:37:28 32° S 04:38:53 82° W 04:42:15 10° NNW
Cosmos 1733 Rocket 3.5 04:35:47 10° N 04:40:08 63° E 04:44:29 10° SSE
Meteor 2-3 Rocket 3.9 04:36:40 10° NNW 04:42:17 56° W 04:46:49 16° SSW
ARIANE 5 R/B 2.9 04:38:21 10° N 04:43:24 49° WNW 04:45:54 27° SW
Cosmos 1603 4.0 04:40:49 28° WSW 04:43:35 52° WNW 04:49:13 10° NNE
Cosmos 1707 Rocket 3.8 04:42:01 33° SW 04:43:40 51° WNW 04:48:03 10° N
Cosmos 883 Rocket 4.4 04:40:01 22° SSW 04:44:06 70° W 04:50:15 10° N
CZ-4C R/B 2.8 04:41:23 25° WSW 04:44:22 48° NW 04:50:27 10° NE
Abrixas rocket 2.3 04:43:41 38° W 04:44:47 70° N 04:48:08 10° ENE
Cosmos 2315 Rocket 4.0 04:42:34 14° S 04:48:03 89° W 04:54:23 10° N
ADEOS II 4.3 04:45:09 10° NE 04:49:21 23° E 04:53:30 10° SE
ATLAS 5 CENTAUR R/B 3.2 04:45:51 12° S 04:49:47 34° ESE 04:54:27 10° NE
Cosmos 1331 Rocket 4.2 04:46:06 10° NNW 04:51:10 49° WSW 04:56:13 10° S
Iridium 2 3.7 04:48:12 10° NNW 04:51:58 60° W 04:54:12 23° SSW
Okean O Rocket 2.0 04:49:37 10° NNE 04:54:05 66° ESE 04:58:24 11° S
Cosmos 1892 2.9 04:56:32 10° NNW 05:00:17 49° W 05:02:55 18° SSW
CZ-2C R/B 3.5 04:58:51 10° S 05:03:18 74° WSW 05:07:45 10° NNW
Cosmos 1908 Rocket 4.4 05:01:26 10° N 05:05:46 54° ENE 05:10:03 10° SSE
SL-16 R/B 3.3 05:03:00 18° SW 05:06:20 29° W 05:11:40 10° NW
IRS-1C Rocket 4.1 05:01:23 10° NNE 05:06:42 88° ESE 05:11:59 10° SSW
MOZ.5/SAFIR/RUBIN 5/SL-8 3.7 05:03:11 10° S 05:07:47 65° WSW 05:12:25 10° NNW
Sich 1 Rocket 3.8 05:04:26 10° N 05:08:50 71° E 05:13:12 10° SSE
USA 234 3.6 05:02:36 10° NE 05:09:01 60° NNW 05:14:35 14° WSW
Thor Agena Rocket 3.6 05:03:59 10° SSE 05:09:07 81° ENE 05:14:21 10° NNW
Cosmos 1184 Rocket 2.8 05:08:29 10° NNW 05:11:57 75° W 05:15:21 10° S
PSLV R/B 3.6 05:08:57 10° N 05:12:41 74° WNW 05:16:00 13° SSW
Cosmos 1943 3.3 05:12:12 16° SW 05:16:39 63° WNW 05:22:18 10° NNE
ERBS 3.6 05:14:53 16° W 05:17:11 34° NNW 05:20:27 10° NE
CZ-4B DEB 4.3 05:12:03 10° NNE 05:17:35 78° ESE 05:23:02 10° SSW
Cosmos 2251 Rocket 4.0 05:14:04 18° SW 05:17:43 44° WNW 05:22:46 10° N
SeaSat 1 3.1 05:13:33 10° S 05:17:57 32° WSW 05:22:23 10° NW
CZ-2D R/B 3.1 05:20:02 10° N 05:24:35 30° WNW 05:28:18 14° WSW
CZ-4B R/B 3.1 05:19:39 10° NNE 05:25:01 85° WNW 05:30:19 10° SSW
Cosmos 2369 Rocket 2.9 05:20:45 10° NW 05:25:38 31° WSW 05:30:30 10° SSW
Cosmos 2292 Rocket 4.1 05:23:41 10° NW 05:25:57 20° W 05:26:59 17° WSW
CZ-2D R/B 4.3 05:23:57 10° N 05:28:01 36° WNW 05:31:34 13° SW
SL-08 ROCKET BODY 4.4 05:23:42 10° N 05:29:42 83° W 05:35:47 10° S
Cosmos 1726 4.2 05:29:41 11° W 05:30:58 13° WNW 05:32:41 10° NW
Cosmos 1992 Rocket 4.2 05:27:53 10° NNW 05:33:08 78° ENE 05:38:22 10° SSE
NOSS 3-2 (A) 4.1 05:28:40 13° WSW 05:34:06 47° NW 05:40:44 10° NE
Cosmos 1455 3.0 05:33:30 11° SW 05:36:50 34° WNW 05:40:27 10° N
SL-27 R/B 3.1 05:34:43 10° S 05:38:20 59° ESE 05:41:56 10° NNE
PAYLOAD B 4.4 05:38:39 10° N 05:44:07 58° WNW 05:49:30 10° SSW
Nadezhda 1 Rocket 4.1 05:38:44 10° S 05:44:59 88° E 05:51:22 10° N
Meteor PRIRODA 4.4 05:41:22 10° NNE 05:45:04 56° E 05:48:46 10° S
CZ-4B R/B 3.0 05:42:29 10° N 05:45:58 46° WNW 05:49:30 10° SW
SL-16 R/B 4.4 05:45:05 10° NW 05:47:07 12° NNW 05:49:09 10° N
NOSS 3-2 (C) 4.2 05:43:00 10° WSW 05:49:01 46° NW 05:55:40 10° NE
PSLV R/B 3.6 05:45:13 10° NNE 05:49:36 89° WNW 05:54:00 10° SSW
Meteor 1-31 Rocket 4.2 05:46:10 10° NNE 05:49:47 40° E 05:53:22 10° S
Okean 2 Rocket 3.3 05:46:55 10° N 05:51:26 79° E 05:55:56 10° SSE
Cosmos 1862 Rocket 4.3 05:48:10 10° SW 05:52:11 35° WNW 05:56:15 10° N
Cosmos 1862 3.5 05:48:23 10° NNW 05:52:14 49° W 05:56:04 10° SSW
Feng Yun 1-1 Rocket 4.4 05:47:06 10° NNE 05:52:32 76° ESE 05:57:55 10° S
USA 116 4.3 05:53:12 10° S 05:57:50 65° W 06:02:59 10° NNW
CENTAUR R/B 2.8 05:52:43 10° SSW 05:58:53 78° SE 06:05:55 10° NE
ADEOS Rocket 3.7 05:51:20 10° NNE 05:58:59 86° WNW 06:06:48 10° SSW
MOS 1 Rocket 4.4 05:55:18 10° NNE 05:59:29 43° E 06:03:32 10° S
Cosmos 1943 Rocket 2.7 05:55:04 10° NW 06:00:17 38° WSW 06:05:27 10° S
Cosmos 2154 Rocket 4.1 05:55:41 10° N 06:02:02 85° W 06:08:22 10° S
Cosmos 2074 Rocket 4.4 05:57:26 10° NNW 06:03:14 43° W 06:09:02 10° SSW
